Tracking 19795 objects as of 20-Jul-2019
HD Live streaming from Space Station
objects crossing your sky now

THORAD DELTA 1 DEB

Track THORAD DELTA 1 DEB now!
10-day predictions


NORAD ID: 8555
Int'l Code: 1974-089CS
Perigee: 1,411.0 km
Apogee: 1,505.9 km
Inclination: 101.3 °
Period: 114.9 minutes
Semi major axis: 7829 km
RCS: 0.0537 m2 (small)
Launch date: November 15, 1974
Source: United States (US)
Launch site: AIR FORCE WESTERN TEST RANGE (AFWTR)

Note: This is SATELLITE DEBRIS
aabbcc
Your satellite tracking list
Your tracking list is empty




NASA's NSSDC Master Catalog

Two Line Element Set (TLE):
1  8555U 74089CS  19199.39216590 +.00000041 +00000-0 +52294-3 0  9995
2  8555 101.2789 023.9716 0060608 308.2190 122.5027 12.53155633036758
Source of the keplerian elements: AFSPC